Regional Weather Roundup
Issued by NWS

Home | Current Version | Previous Version | Graphics & Text | Print | Product List | Glossary On
Versions: 1 2 3 4 5 6 7 8 9 10 11 12 13 14 15 16 17 18 19 20 21 22 23 24 25 26 27 28 29 30 31 32 33 34 35 36 37 38 39 40 41 42 43 44 45 46 47 48 49 50
000
ASUS43 KLMK 191010
RWRKY
KENTUCKY REGIONAL WEATHER ROUNDUP
NATIONAL WEATHER SERVICE LOUISVILLE KY
500 AM EST FRI DEC 19 2014

NOTE "FAIR" INDICATES FEW OR NO CLOUDS BELOW 12,000 FEET
WITH NO SIGNIFICANT WEATHER AND/OR OBSTRUCTIONS TO VISIBILITY.

KYZ001>023-026-027-061>063-070>075-191100-
WESTERN AND SOUTH CENTRAL KENTUCKY

CITY           SKY/WX    TMP DP  RH WIND       PRES   REMARKS
PADUCAH        CLOUDY    34  29  82 N8        30.25F WCI  27
HENDERSON      CLOUDY    32  25  74 CALM      30.28S
OWENSBORO      CLOUDY    32  26  78 MISG      30.28S
HOPKINSVILLE   CLOUDY    33  29  83 N6        30.23F WCI  28
BOWLING GREEN  CLOUDY    34  27  75 N5        30.25F WCI  30
GLASGOW        CLOUDY    31  28  86 CALM      30.23F
$$

KYZ024-025-028>034-038-045-046-053-191100-
NORTH CENTRAL KENTUCKY

CITY           SKY/WX    TMP DP  RH WIND       PRES   REMARKS
LOUISVILLE/SDF CLOUDY    31  23  72 NE6       30.27R WCI  25
LOUISVILLE/LOU CLOUDY    30  22  72 N5        30.27S WCI  25
FORT KNOX      CLOUDY    31  26  83 N3        30.23F
$$

KYZ035>037-039>044-047>052-055>060-089>105-191100-
NORTHEAST KENTUCKY

CITY           SKY/WX    TMP DP  RH WIND       PRES   REMARKS
LEXINGTON      CLOUDY    28  23  81 N6        30.23S WCI  22
COVINGTON      PTCLDY    25  19  78 CALM      30.23S
FRANKFORT      CLOUDY    29  22  75 N5        30.24R WCI  24
$$

KYZ054-064>069-076>088-106>120-191100-
SOUTHEAST KENTUCKY

CITY           SKY/WX    TMP DP  RH WIND       PRES   REMARKS
JACKSON        CLOUDY    30  24  78 CALM      30.19S
LONDON         CLOUDY    33  25  72 N6        30.20S WCI  28
SOMERSET       CLOUDY    32  27  80 NE5       30.23S WCI  27
MIDDLESBORO    CLOUDY    33  28  84 CALM      30.19S
MONTICELLO     CLOUDY    32  29  89 CALM      30.24S
$$




USA.gov is the U.S. government's official web portal to all federal, state and local government web resources and services.